TimeCDT,TemperatureF,Dew PointF,Humidity,Sea Level PressureIn,VisibilityMPH,Wind Direction,Wind SpeedMPH,Gust SpeedMPH,PrecipitationIn,Events,Conditions,WindDirDegrees,DateUTC
12:15 AM,53.6,51.8,94,30.04,10.0,Calm,Calm,-,N/A,,Clear,0,2013-05-08 05:15:00
12:35 AM,53.6,51.8,94,30.04,10.0,Calm,Calm,-,N/A,,Clear,0,2013-05-08 05:35:00
12:55 AM,53.6,51.8,94,30.04,10.0,Calm,Calm,-,N/A,,Clear,0,2013-05-08 05:55:00
1:15 AM,51.8,48.2,88,30.04,10.0,Calm,Calm,-,N/A,,Clear,0,2013-05-08 06:15:00
1:35 AM,53.6,51.8,94,30.03,10.0,Calm,Calm,-,N/A,,Clear,0,2013-05-08 06:35:00
1:55 AM,53.6,51.8,94,30.03,8.0,Calm,Calm,-,N/A,,Clear,0,2013-05-08 06:55:00
2:15 AM,51.8,50.0,94,30.02,9.0,Calm,Calm,-,N/A,,Clear,0,2013-05-08 07:15:00
2:35 AM,50.0,48.2,94,30.02,5.0,Calm,Calm,-,N/A,,Clear,0,2013-05-08 07:35:00
2:55 AM,51.8,48.2,88,30.02,1.5,Calm,Calm,-,N/A,,Clear,0,2013-05-08 07:55:00
3:15 AM,50.0,48.2,94,30.03,1.5,Calm,Calm,-,N/A,,Clear,0,2013-05-08 08:15:00
3:35 AM,50.0,48.2,94,30.03,2.5,Calm,Calm,-,N/A,,Clear,0,2013-05-08 08:35:00
3:55 AM,50.0,48.2,94,30.04,8.0,Calm,Calm,-,N/A,,Clear,0,2013-05-08 08:55:00
4:15 AM,50.0,48.2,94,30.04,8.0,Calm,Calm,-,N/A,,Clear,0,2013-05-08 09:15:00
4:35 AM,51.8,48.2,88,30.04,4.0,Calm,Calm,-,N/A,,Clear,0,2013-05-08 09:35:00
4:55 AM,48.2,46.4,93,30.04,0.5,Calm,Calm,-,N/A,,Unknown,0,2013-05-08 09:55:00
5:15 AM,48.2,46.4,93,30.04,1.5,Calm,Calm,-,N/A,,Clear,0,2013-05-08 10:15:00
5:35 AM,48.2,46.4,93,30.04,0.5,Calm,Calm,-,N/A,,Unknown,0,2013-05-08 10:35:00
5:55 AM,48.2,46.4,93,30.04,0.8,Calm,Calm,-,N/A,,Unknown,0,2013-05-08 10:55:00
6:15 AM,48.2,46.4,93,30.05,9.0,Calm,Calm,-,N/A,,Clear,0,2013-05-08 11:15:00
6:35 AM,48.2,46.4,93,30.05,7.0,ESE,3.5,-,N/A,,Clear,120,2013-05-08 11:35:00
6:55 AM,48.2,46.4,93,30.07,10.0,ESE,3.5,-,N/A,,Clear,110,2013-05-08 11:55:00
7:15 AM,51.8,48.2,88,30.07,10.0,Calm,Calm,-,N/A,,Clear,0,2013-05-08 12:15:00
7:35 AM,53.6,51.8,94,30.08,10.0,Calm,Calm,-,N/A,,Clear,0,2013-05-08 12:35:00
7:55 AM,55.4,53.6,94,30.08,10.0,Calm,Calm,-,N/A,,Clear,0,2013-05-08 12:55:00
8:15 AM,57.2,55.4,94,30.08,10.0,Calm,Calm,-,N/A,,Clear,0,2013-05-08 13:15:00
8:35 AM,60.8,55.4,82,30.08,10.0,Calm,Calm,-,N/A,,Clear,0,2013-05-08 13:35:00
8:55 AM,64.4,57.2,77,30.09,10.0,Calm,Calm,-,N/A,,Clear,0,2013-05-08 13:55:00
9:15 AM,66.2,57.2,73,30.09,10.0,Calm,Calm,-,N/A,,Clear,0,2013-05-08 14:15:00
9:35 AM,69.8,57.2,64,30.09,10.0,Calm,Calm,-,N/A,,Clear,0,2013-05-08 14:35:00
9:55 AM,71.6,57.2,60,30.09,10.0,Calm,Calm,-,N/A,,Clear,0,2013-05-08 14:55:00
10:15 AM,71.6,53.6,53,30.09,10.0,Calm,Calm,-,N/A,,Clear,0,2013-05-08 15:15:00
10:35 AM,73.4,53.6,50,30.09,10.0,Calm,Calm,-,N/A,,Clear,0,2013-05-08 15:35:00
10:55 AM,73.4,51.8,47,30.09,10.0,Calm,Calm,-,N/A,,Clear,0,2013-05-08 15:55:00
11:15 AM,75.2,51.8,44,30.09,10.0,South,5.8,-,N/A,,Clear,180,2013-05-08 16:15:00
11:35 AM,75.2,48.2,38,30.08,10.0,ESE,3.5,-,N/A,,Clear,110,2013-05-08 16:35:00
11:55 AM,75.2,51.8,44,30.08,10.0,NNE,3.5,-,N/A,,Clear,30,2013-05-08 16:55:00
12:15 PM,75.2,46.4,36,30.07,10.0,Calm,Calm,-,N/A,,Clear,0,2013-05-08 17:15:00
12:35 PM,77.0,51.8,41,30.07,10.0,ENE,3.5,-,N/A,,Clear,70,2013-05-08 17:35:00
12:55 PM,78.8,51.8,39,30.06,10.0,SE,3.5,-,N/A,,Partly Cloudy,130,2013-05-08 17:55:00
1:15 PM,75.2,51.8,44,30.06,10.0,Calm,Calm,-,N/A,,Clear,0,2013-05-08 18:15:00
1:35 PM,77.0,48.2,36,30.06,10.0,Calm,Calm,-,N/A,,Clear,0,2013-05-08 18:35:00
1:55 PM,78.8,46.4,32,30.05,10.0,Calm,Calm,-,N/A,,Clear,0,2013-05-08 18:55:00
2:15 PM,77.0,50.0,39,30.05,10.0,ESE,6.9,-,N/A,,Mostly Cloudy,110,2013-05-08 19:15:00
2:35 PM,77.0,51.8,41,30.05,10.0,ESE,4.6,-,N/A,,Scattered Clouds,110,2013-05-08 19:35:00
2:55 PM,77.0,53.6,44,30.04,10.0,East,3.5,-,N/A,,Scattered Clouds,100,2013-05-08 19:55:00
3:35 PM,75.2,53.6,47,30.03,10.0,South,3.5,-,N/A,,Partly Cloudy,170,2013-05-08 20:35:00
3:55 PM,77.0,51.8,41,30.02,10.0,SE,4.6,-,N/A,,Partly Cloudy,130,2013-05-08 20:55:00
4:15 PM,75.2,53.6,47,30.02,10.0,ESE,4.6,-,N/A,,Mostly Cloudy,110,2013-05-08 21:15:00
4:35 PM,73.4,55.4,53,30.02,10.0,ESE,3.5,-,N/A,,Overcast,120,2013-05-08 21:35:00
4:55 PM,75.2,55.4,50,30.02,10.0,SSE,4.6,-,N/A,,Mostly Cloudy,150,2013-05-08 21:55:00
5:15 PM,75.2,55.4,50,30.02,10.0,Calm,Calm,-,N/A,,Mostly Cloudy,0,2013-05-08 22:15:00
5:35 PM,73.4,51.8,47,30.01,10.0,South,4.6,-,N/A,,Overcast,170,2013-05-08 22:35:00
5:55 PM,73.4,53.6,50,30.02,10.0,West,9.2,16.1,N/A,,Overcast,270,2013-05-08 22:55:00
6:15 PM,69.8,53.6,56,30.02,10.0,West,8.1,-,N/A,,Mostly Cloudy,270,2013-05-08 23:15:00
6:35 PM,69.8,53.6,56,30.02,10.0,Calm,Calm,-,N/A,,Mostly Cloudy,0,2013-05-08 23:35:00
6:55 PM,69.8,55.4,60,30.03,10.0,NW,3.5,-,N/A,,Overcast,310,2013-05-08 23:55:00
7:15 PM,68.0,55.4,64,30.02,10.0,Calm,Calm,-,N/A,,Overcast,0,2013-05-09 00:15:00
7:35 PM,68.0,55.4,64,30.02,10.0,Calm,Calm,-,N/A,,Overcast,0,2013-05-09 00:35:00
7:55 PM,66.2,55.4,68,30.03,10.0,Calm,Calm,-,N/A,,Overcast,0,2013-05-09 00:55:00
8:15 PM,66.2,55.4,68,30.04,10.0,Calm,Calm,-,N/A,,Overcast,0,2013-05-09 01:15:00
8:35 PM,64.4,57.2,77,30.04,10.0,Calm,Calm,-,N/A,,Overcast,0,2013-05-09 01:35:00
8:55 PM,64.4,57.2,77,30.05,10.0,Calm,Calm,-,N/A,,Mostly Cloudy,0,2013-05-09 01:55:00
9:15 PM,64.4,57.2,77,30.05,10.0,Calm,Calm,-,N/A,,Overcast,0,2013-05-09 02:15:00
9:35 PM,62.6,57.2,82,30.04,10.0,Calm,Calm,-,N/A,,Mostly Cloudy,0,2013-05-09 02:35:00
9:55 PM,62.6,57.2,82,30.04,10.0,Calm,Calm,-,N/A,,Clear,0,2013-05-09 02:55:00
10:15 PM,60.8,55.4,82,30.04,10.0,Calm,Calm,-,N/A,,Clear,0,2013-05-09 03:15:00
10:35 PM,60.8,55.4,82,30.03,10.0,Calm,Calm,-,N/A,,Clear,0,2013-05-09 03:35:00
10:55 PM,59.0,55.4,88,30.03,10.0,Calm,Calm,-,N/A,,Scattered Clouds,0,2013-05-09 03:55:00
11:15 PM,59.0,55.4,88,30.03,10.0,Calm,Calm,-,N/A,,Overcast,0,2013-05-09 04:15:00
11:35 PM,59.0,55.4,88,30.03,10.0,Calm,Calm,-,N/A,,Overcast,0,2013-05-09 04:35:00
11:55 PM,60.8,57.2,88,30.02,10.0,Calm,Calm,-,N/A,,Overcast,0,2013-05-09 04:55:00